Regional Weather Roundup
Issued by NWS

Home | Current Version | Previous Version | Graphics & Text | Print | Product List | Glossary On
Versions: 1 2 3 4 5 6 7 8 9 10 11 12 13 14 15 16 17 18 19 20 21 22 23 24 25 26 27
000
ASUS45 KBOI 222210
RWRID
WEATHER ROUNDUP FOR IDAHO
NATIONAL WEATHER SERVICE BOISE ID
400 PM MDT WED OCT 22 2014

NOTE: "FAIR" INDICATES FEW OR NO CLOUDS BELOW 12000 FEET
WITH NO SIGNIFICANT WEATHER AND/OR OBSTRUCTIONS TO VISIBILITY

IDZ012-014-222300-
SOUTHWEST IDAHO


CITY           SKY/WX    TMP DP  RH WIND       PRES   REMARKS
BOISE          PTSUNNY   63  28  26 SE14      30.05F
CALDWELL       CLOUDY    61  34  36 SE17      30.05F
MOUNTAIN HOME  PTSUNNY   61  34  36 E14       30.07F
$$

IDZ016-017-222300-
SOUTHCENTRAL IDAHO


CITY           SKY/WX    TMP DP  RH WIND       PRES   REMARKS
BURLEY         PTSUNNY   60  29  30 NW6       30.12F
JEROME         PTSUNNY   59  23  25 NW6       30.12F
TWIN FALLS     PTSUNNY   62  30  29 NE5       30.11F
$$

IDZ019>023-222300-
SOUTHEAST IDAHO


CITY           SKY/WX    TMP DP  RH WIND       PRES   REMARKS
IDAHO FALLS    MOSUNNY   55  28  35 SW10      30.17S
POCATELLO      SUNNY     59  27  29 W6        30.16S
REXBURG        MOSUNNY   53  23  31 SW12      30.17S
$$

IDZ006-010-011-018-031-032-222300-
CENTRAL IDAHO MOUNTAINS


CITY           SKY/WX    TMP DP  RH WIND       PRES   REMARKS
MCCALL         CLOUDY    50  32  50 S18       30.06F
HAILEY         PTSUNNY   52  32  46 SE8       30.17F
STANLEY          N/A     47  32  56 N6        30.13F
SALMON         SUNNY    N/A N/A N/A MISG        N/A
CHALLIS        MOSUNNY   55  31  39 S10       30.08F
$$

IDZ002-004-006-007-026-222300-
NORTHERN IDAHO


CITY           SKY/WX    TMP DP  RH WIND       PRES   REMARKS
LEWISTON       CLOUDY    66  42  41 NE5       29.85F
LOWELL           N/A     63  50  62 N3        29.92F
COEUR D`ALENE  CLOUDY    57  41  54 SE5       29.85F
MULLAN PASS    CLOUDY    43  34  70 VRB6      29.95S
$$



USA.gov is the U.S. government's official web portal to all federal, state and local government web resources and services.